Tracking 20093 objects as of 16-Dec-2019
HD Live streaming from Space Station
objects crossing your sky now

IRIDIUM 33 DEB

Track IRIDIUM 33 DEB now!
10-day predictions


NORAD ID: 34540
Int'l Code: 1997-051JH
Perigee: 704.6 km
Apogee: 745.3 km
Inclination: 86.3 °
Period: 99.1 minutes
Semi major axis: 7095 km
RCS: 0.029 m2 (small)
Launch date: September 14, 1997
Source: United States (US)
Launch site: TYURATAM MISSILE AND SPACE COMPLEX (TTMTR)

Note: This is SATELLITE DEBRIS
aabbcc
Your satellite tracking list
Your tracking list is empty




NASA's NSSDC Master Catalog

Two Line Element Set (TLE):
1 34540U 97051JH  19350.04700821  .00000725  00000-0  17178-3 0  9999
2 34540  86.3249 198.2805 0028706  29.4112 122.2538 14.52408846571665
Source of the keplerian elements: AFSPC